Kansas City International, MO

4:43 AM CST on December 10, 2019 (GMT -0600)
Kansas City International

Weather History for KMCI - November, 2019

Change the Weather History Date:

Friday, November 15, 2019

  Actual Average Record
Temperature  
Mean Temperature 41 °F 44 °F  
Max Temperature 56 °F 54 °F 79 °F (1950)
Min Temperature 25 °F 34 °F 8 °F (1940)
Degree Days  
Heating Degree Days 24 21  
Month to date heating degree days 389 265  
Since 1 July heating degree days 825 625  
Cooling Degree Days 0 0  
Month to date cooling degree days 0 0  
Year to date cooling degree days 1449 1358  
Moisture  
Dew Point 26 °F    
Average Humidity 55    
Maximum Humidity 71    
Minimum Humidity 38    
Precipitation  
Precipitation 0.00 in 0.07 in 3.69 in (1964)
Month to date precipitation 0.05 1.16  
Year to date precipitation 50.60 36.34  
Snow  
Snow 0.00 in 0.00 in 4.40 in (1932)
Month to date snowfall 0.6 0.3  
Since 1 July snowfall 1.9 0.5  
Since 1 September snowfall 1.9 0.5  
Snow Depth 0.00 in    
Sea Level Pressure  
Sea Level Pressure 30.35 in    
Wind  
Wind Speed 7 mph (South)    
Max Wind Speed 10 mph    
Max Gust Speed 15 mph    
Visibility 10 miles    
Events      
T = Trace of Precipitation, MM = Missing Value Source: NWS Daily Summary

Daily Weather History Graph

Daily Weather History Graph

Search for Another Location

Airport or City:

Astronomy

Nov. 15, 2019 Rise Set
Actual Time 7:02 AM CST 5:04 PM CST
Civil Twilight 6:33 AM CST 5:32 PM CST
Nautical Twilight 6:01 AM CST 6:05 PM CST
Astronomical Twilight 5:29 AM CST 6:36 PM CST
Moon 7:41 PM CST (11/15) 9:58 AM CST (11/15)
Length of Visible Light 10h 59m
Length of Day
10h 02m
Waning Gibbous, 90% of the Moon is Illuminated
Nov 15
Waning Gibbous
Nov 19
Last Quarter
Nov 26
New
Dec 4
First Quarter
Dec 11
Full

Hourly Weather History & Observations

Time (CST) Temp. Windchill Dew Point Humidity Pressure Visibility Wind Dir Wind Speed Gust Speed Precip Events Conditions
1:53 AM 27.0 °F 20.5 °F 17.1 °F 66% 30.40 in 10.0 mi SW 5.8 mph - N/A   Clear
2:53 AM 30.0 °F 24.1 °F 18.0 °F 61% 30.40 in 10.0 mi SW 5.8 mph - N/A   Clear
3:53 AM 28.0 °F 22.8 °F 18.0 °F 66% 30.39 in 10.0 mi SSW 4.6 mph - N/A   Clear
4:53 AM 27.0 °F 19.5 °F 17.1 °F 66% 30.39 in 10.0 mi South 6.9 mph - N/A   Clear
5:53 AM 27.0 °F 19.5 °F 18.0 °F 69% 30.39 in 10.0 mi South 6.9 mph - N/A   Clear
6:53 AM 26.1 °F 18.4 °F 18.0 °F 71% 30.40 in 10.0 mi South 6.9 mph - N/A   Clear
7:53 AM 30.0 °F 24.1 °F 21.9 °F 72% 30.41 in 10.0 mi South 5.8 mph - N/A   Partly Cloudy
8:53 AM 37.9 °F 34.4 °F 26.1 °F 62% 30.41 in 10.0 mi SSW 4.6 mph - N/A   Scattered Clouds
9:53 AM 44.1 °F 42.5 °F 28.0 °F 53% 30.41 in 10.0 mi SSW 3.5 mph - N/A   Mostly Cloudy
10:53 AM 50.0 °F - 30.0 °F 46% 30.40 in 10.0 mi SSW 3.5 mph - N/A   Scattered Clouds
11:53 AM 54.0 °F - 30.0 °F 40% 30.37 in 10.0 mi ESE 3.5 mph - N/A   Clear
12:53 PM 55.0 °F - 30.9 °F 40% 30.35 in 10.0 mi Variable 5.8 mph - N/A   Partly Cloudy
1:53 PM 55.0 °F - 30.9 °F 40% 30.33 in 10.0 mi Variable 5.8 mph - N/A   Partly Cloudy
3:53 PM 54.0 °F - 30.0 °F 40% 30.30 in 10.0 mi SE 9.2 mph - N/A   Partly Cloudy
4:53 PM 46.9 °F - 28.9 °F 50% 30.30 in 10.0 mi SE 6.9 mph - N/A   Partly Cloudy
5:53 PM 43.0 °F 37.7 °F 28.9 °F 58% 30.30 in 10.0 mi SE 9.2 mph - N/A   Partly Cloudy
6:53 PM 41.0 °F 35.2 °F 28.9 °F 62% 30.31 in 10.0 mi SE 9.2 mph - N/A   Clear
7:53 PM 39.0 °F 32.8 °F 28.0 °F 65% 30.31 in 10.0 mi SE 9.2 mph - N/A   Clear
8:53 PM 37.9 °F 31.5 °F 28.0 °F 68% 30.31 in 10.0 mi SE 9.2 mph - N/A   Clear
9:53 PM 37.0 °F 31.0 °F 27.0 °F 67% 30.31 in 10.0 mi SSE 8.1 mph - N/A   Clear
10:53 PM 36.0 °F 30.3 °F 26.1 °F 67% 30.30 in 10.0 mi SE 6.9 mph - N/A   Clear
11:53 PM 35.1 °F 27.9 °F 26.1 °F 70% 30.29 in 10.0 mi SSE 9.2 mph - N/A   Clear